Location: Middleville
(41.0560°N, 74.8630°W)
Time: 23:07:31
(UTC-04:00)

OTV 5 (USA 277) - Visible Passes

Search period start: 23 June 2018 00:00
Search period end: 03 July 2018 00:00
Orbit: 313 x 320 km, 54.5° (Epoch: 21 June)

Date Brightness Start Highest point End Pass type
(mag) Time Alt. Az. Time Alt. Az. Time Alt. Az.
23 Jun ? 01:34:19 10° NNW 01:34:38 12° NNW 01:34:38 12° NNW visible
24 Jun ? 00:15:33 10° N 00:16:31 11° NNE 00:16:52 11° NNE visible
25 Jun ? 00:29:06 10° NNW 00:30:05 16° N 00:30:05 16° N visible
26 Jun ? 00:43:09 10° NW 00:43:24 12° NW 00:43:24 12° NW visible
26 Jun ? 23:23:59 10° N 23:25:39 15° NNE 23:25:57 14° NE visible
27 Jun ? 23:37:51 10° NNW 23:39:24 23° N 23:39:24 23° N visible
28 Jun ? 22:19:08 10° N 22:20:02 11° NNE 22:20:56 10° NE visible
28 Jun ? 23:52:04 10° NW 23:52:54 18° NW 23:52:54 18° NW visible
29 Jun ? 22:32:39 10° NNW 22:34:45 20° NNE 22:35:36 17° ENE visible
30 Jun ? 22:46:41 10° NW 22:49:12 44° NNE 22:49:12 44° NNE visible
01 Jul ? 21:27:34 10° N 21:29:10 14° NNE 21:30:47 10° ENE visible
01 Jul ? 23:01:03 10° NW 23:02:51 35° WNW 23:02:51 35° WNW visible
02 Jul ? 21:41:24 10° NNW 21:43:48 28° NE 21:45:42 14° E visible
02 Jul ? 23:15:58 10° W 23:16:33 13° W 23:16:33 13° W visible
